Weather History for Guymon, OK

Change the Weather History Date:

Friday, June 7, 2013

  Actual Average Record
Temperature  
Mean Temperature 75 °F 72 °F  
Max Temperature 90 °F 85 °F 104 °F (2008)
Min Temperature 59 °F 58 °F 50 °F (2007)
Degree Days  
Heating Degree Days 0 0  
Month to date heating degree days 0 6  
Since 1 June heating degree days 0 6  
Since 1 July heating degree days 4311 4455  
Cooling Degree Days 10 7  
Month to date cooling degree days 46 45  
Year to date cooling degree days 250 153  
Since 1 June cooling degree days 46 45  
Growing Degree Days 24 (Base 50)    
Moisture  
Dew Point 54 °F    
Average Humidity 49    
Maximum Humidity 75    
Minimum Humidity 23    
Precipitation  
Precipitation 0.00 in 0.12 in 0.30 in (2014)
Month to date precipitation 0.81 0.84  
Year to date precipitation 3.16 7.09  
Snow  
Snow 0.00 in - - ()
Month to date snowfall T  
Since 1 June snowfall T  
Since 1 July snowfall 22.3  
Snow Depth 0.00 in    
Sea Level Pressure  
Sea Level Pressure 29.86 in    
Wind  
Wind Speed 12 mph (SSE)    
Max Wind Speed 30 mph    
Max Gust Speed 39 mph    
Visibility 10 miles    
Events Thunderstorm    
T = Trace of Precipitation, MM = Missing Value Source: NWS Daily Summary

Daily Weather History Graph

Daily Weather History Graph

Search for Another Location

Airport:

Trip Planner

Search our weather history database for the weather conditions in past years. The results will help you decide how hot, cold, wet, or windy it might be!

Date:

Astronomy

Jun. 07, 2013 Rise Set
Actual Time 6:27 AM CDT 9:02 PM CDT
Civil Twilight 5:56 AM CDT 9:33 PM CDT
Nautical Twilight 5:19 AM CDT 10:11 PM CDT
Astronomical Twilight 4:37 AM CDT 10:53 PM CDT
Moon 5:49 AM CDT (6/7) 8:20 PM CDT (6/7)
Length of Visible Light 15h 36m
Length of Day
14h 35m
Waning Crescent, 1% of the Moon is Illuminated
Jun 7
Waning Crescent
Jun 8
New
Jun 16
First Quarter
Jun 23
Full
Jun 29
Last Quarter

Hourly Weather History & Observations

Time (CDT) Temp. Heat Index Dew Point Humidity Pressure Visibility Wind Dir Wind Speed Gust Speed Precip Events Conditions
12:53 AM 64.0 °F - 50.0 °F 60% 29.96 in 10.0 mi South 10.4 mph - N/A   Clear
1:53 AM 62.1 °F - 48.9 °F 62% 29.96 in 10.0 mi South 6.9 mph - N/A   Clear
2:53 AM 62.1 °F - 48.9 °F 62% 29.95 in 10.0 mi SSE 5.8 mph - N/A   Clear
3:53 AM 60.1 °F - 48.0 °F 64% 29.92 in 10.0 mi SSE 5.8 mph - N/A   Clear
4:53 AM 60.1 °F - 48.0 °F 64% 29.92 in 10.0 mi SSE 8.1 mph - N/A   Clear
5:53 AM 60.1 °F - 48.9 °F 67% 29.91 in 10.0 mi South 9.2 mph - N/A   Clear
6:53 AM 59.0 °F - 51.1 °F 75% 29.92 in 10.0 mi South 5.8 mph - N/A   Clear
7:53 AM 64.0 °F - 54.0 °F 70% 29.91 in 10.0 mi South 11.5 mph - N/A   Clear
8:53 AM 68.0 °F - 57.0 °F 68% 29.91 in 10.0 mi South 8.1 mph - N/A   Clear
9:53 AM 75.0 °F - 57.9 °F 55% 29.89 in 10.0 mi SSW 10.4 mph - N/A   Clear
10:53 AM 79.0 °F - 57.9 °F 48% 29.87 in 10.0 mi SSW 11.5 mph 18.4 mph N/A   Clear
11:53 AM 81.0 °F 80.7 °F 55.0 °F 41% 29.86 in 10.0 mi Variable 4.6 mph 16.1 mph N/A   Clear
12:53 PM 84.0 °F - 52.0 °F 33% 29.83 in 10.0 mi South 4.6 mph - N/A   Clear
1:53 PM 86.0 °F - 50.0 °F 29% 29.80 in 10.0 mi Variable 4.6 mph - N/A   Partly Cloudy
2:53 PM 88.0 °F - 46.0 °F 23% 29.76 in 10.0 mi ENE 5.8 mph - N/A   Clear
3:53 PM 89.1 °F - 46.9 °F 23% 29.73 in 10.0 mi SW 4.6 mph - N/A   Clear
4:53 PM 80.1 °F 80.1 °F 55.0 °F 42% 29.74 in 10.0 mi SSE 19.6 mph 28.8 mph N/A   Scattered Clouds
5:20 PM 78.8 °F - 55.4 °F 44% 29.86 in 10.0 mi SSE 15.0 mph 23.0 mph N/A Thunderstorm Mostly Cloudy
5:34 PM 77.0 °F - 59.0 °F 54% 29.87 in 10.0 mi SSE 15.0 mph 20.7 mph N/A Thunderstorm Thunderstorm
5:53 PM 75.9 °F - 57.9 °F 54% 29.77 in 10.0 mi ESE 16.1 mph 24.2 mph N/A Thunderstorm Thunderstorm
6:36 PM 71.6 °F - 59.0 °F 64% 29.86 in 10.0 mi SSE 19.6 mph 33.4 mph N/A   Partly Cloudy
6:53 PM 71.1 °F - 59.0 °F 66% 29.78 in 10.0 mi SSE 24.2 mph 29.9 mph N/A   Mostly Cloudy
7:19 PM 69.8 °F - 57.2 °F 64% 29.90 in 10.0 mi SSE 15.0 mph 29.9 mph N/A Thunderstorm Scattered Clouds
7:34 PM 66.2 °F - 57.2 °F 73% 29.91 in 10.0 mi South 17.3 mph - N/A   Partly Cloudy
7:46 PM 66.2 °F - 57.2 °F 73% 29.93 in 10.0 mi SSE 12.7 mph - N/A Thunderstorm Scattered Clouds
7:53 PM 66.9 °F - 57.9 °F 73% 29.83 in 10.0 mi South 11.5 mph - N/A Thunderstorm Mostly Cloudy
8:53 PM 69.1 °F - 54.0 °F 58% 29.84 in 10.0 mi SSE 13.8 mph 23.0 mph N/A   Overcast
9:53 PM 66.9 °F - 57.0 °F 70% 29.82 in 10.0 mi South 19.6 mph 26.5 mph N/A   Clear
10:53 PM 64.0 °F - 54.0 °F 70% 29.79 in 10.0 mi South 16.1 mph - N/A   Clear
11:53 PM 66.0 °F - 52.0 °F 60% 29.77 in 10.0 mi South 16.1 mph 23.0 mph N/A   Clear